Wind_Speed
30 31 33 34 35 36 35 35 35 36 37 37 36 34 32 32 32 33 35 35 33 31 29 27 27 27 27 27 28 30 32 34 36 38 39 39 39 40 40 41 41 41 40 40 39 39 38 36 36 35 34 33 33 33 34 35 36 36 36 36 36 37 39 42 46 48 46 42 43 47 49 51 51 51 52 51 49 49 50 50 51 52 54 55 55
34 33 34 35 37 36 37 38 38 39 40 39 37 35 34 34 35 36 38 38 37 34 31 30 30 30 30 30 30 31 32 34 35 36 38 39 40 40 40 41 41 41 41 40 40 39 38 37 36 35 34 34 35 35 36 35 36 36 35 36 37 38 39 41 44 47 48 45 43 46 50 52 52 51 52 52 52 52 52 52 52 53 55 58 59
38 37 37 38 38 37 39 41 41 41 42 41 39 37 36 37 37 38 39 40 41 38 35 33 33 33 33 33 32 32 32 34 35 36 37 39 40 41 41 41 41 41 41 41 40 40 38 37 37 36 36 36 37 37 36 35 35 36 36 37 38 38 39 42 44 46 48 48 46 47 50 53 52 51 52 53 54 54 54 54 56 57 58 61 63
41 41 41 40 40 40 42 43 42 42 42 42 41 39 38 38 38 39 40 42 44 43 39 37 36 37 37 36 35 33 33 34 34 35 37 39 41 42 42 42 42 41 41 40 40 39 39 38 38 39 39 39 39 37 36 36 36 38 38 38 39 39 40 42 44 46 49 50 49 49 51 54 54 53 53 54 55 56 57 58 59 60 62 64 65
45 45 44 43 43 42 42 43 43 43 42 42 43 42 40 40 39 40 41 43 46 47 45 41 39 40 40 39 37 35 34 34 36 37 38 40 41 42 43 43 43 42 41 41 40 40 40 40 40 41 41 40 38 37 37 38 38 39 40 40 40 41 42 43 45 47 50 51 51 51 52 54 55 54 55 57 58 58 59 61 62 63 63 63 65
46 48 46 45 46 44 43 44 44 45 44 43 44 44 44 43 42 43 44 46 47 49 49 45 42 42 43 43 41 38 36 37 38 39 40 41 42 42 43 43 43 43 42 41 41 41 41 41 42 42 41 40 39 39 39 40 40 41 41 41 42 43 43 44 46 49 50 51 52 52 53 54 54 54 54 57 61 61 62 62 63 64 64 63 64
45 47 47 47 48 48 46 45 45 47 47 46 45 45 46 46 46 47 48 48 49 49 50 48 45 44 45 46 45 41 39 40 41 42 42 42 42 42 43 43 44 44 43 42 42 42 42 42 42 42 41 41 41 41 42 42 42 42 42 43 44 45 45 45 47 49 50 51 52 53 53 53 54 55 56 58 60 63 64 64 63 65 67 66 65
44 46 48 49 50 50 49 48 47 48 49 49 47 46 48 49 49 49 48 48 49 48 49 49 48 47 46 47 46 43 42 43 44 44 43 42 42 42 43 44 45 45 44 43 42 42 42 42 42 42 42 43 43 44 44 43 43 43 43 44 46 46 46 47 49 50 50 51 52 53 54 54 54 56 57 59 61 62 65 66 66 66 68 68 66
43 45 48 50 51 50 50 48 47 48 50 50 48 47 49 50 50 49 47 47 47 48 48 49 49 49 48 46 45 45 45 45 45 44 43 43 43 44 44 44 45 45 44 44 44 43 43 43 43 43 44 44 45 45 44 43 43 43 43 45 46 46 47 49 50 50 51 52 54 55 56 56 57 59 59 60 62 63 65 67 68 69 69 69 67
42 44 47 48 47 47 45 44 44 45 48 50 50 50 51 51 50 48 45 45 46 47 48 48 49 48 47 46 45 45 46 46 45 44 44 44 45 45 45 44 45 46 45 45 45 45 44 44 44 45 45 46 45 45 44 43 43 44 44 46 46 47 49 50 50 51 52 54 56 57 58 59 59 61 62 61 62 64 66 67 68 69 70 71 70
43 44 44 43 42 43 42 42 42 43 45 47 50 51 51 49 48 46 44 44 44 45 46 47 47 46 46 45 46 46 46 45 45 45 45 45 45 45 45 45 46 47 47 47 47 46 46 46 47 47 47 47 46 45 44 43 44 45 45 46 48 49 50 50 51 53 55 57 58 59 61 61 61 61 62 63 63 64 65 65 65 66 66 68 70
44 44 44 42 42 43 43 43 43 43 44 46 48 49 48 47 46 45 44 43 43 43 44 45 45 44 44 45 45 46 45 45 45 46 45 45 45 46 46 46 47 48 48 48 48 48 48 48 49 49 48 48 47 46 45 44 44 45 46 47 49 51 51 51 52 54 57 59 59 59 60 61 61 60 59 60 62 62 62 61 61 62 63 64 67
43 46 46 45 44 44 45 45 44 44 45 45 45 46 45 44 43 42 41 40 40 41 41 42 42 42 42 43 43 43 44 44 45 45 45 45 45 46 47 47 48 48 48 48 48 48 48 49 49 49 48 48 47 46 45 44 44 45 46 48 49 50 49 50 53 55 58 59 59 59 59 58 60 59 55 56 58 59 61 61 60 62 64 64 65
44 47 48 48 47 47 47 46 45 45 46 44 44 44 43 42 41 39 39 39 39 40 40 40 41 40 40 40 41 41 43 43 44 44 44 45 45 46 47 48 48 48 48 48 48 48 48 48 49 49 48 48 47 45 44 43 44 45 46 48 49 49 49 51 53 55 56 56 57 57 56 56 57 57 54 54 56 58 60 62 62 64 66 66 65
46 47 48 47 47 47 46 45 45 46 45 43 43 42 40 39 38 38 38 39 39 40 41 41 40 38 38 38 38 40 41 41 42 42 43 44 45 46 48 48 48 48 47 47 47 47 47 48 48 48 47 46 45 44 44 43 44 46 47 49 49 48 50 52 53 54 54 54 55 56 56 56 56 56 55 54 56 58 59 61 63 64 66 67 66
45 46 44 42 43 44 43 44 46 45 43 42 41 39 37 36 36 35 36 37 39 41 41 40 38 36 35 35 36 37 38 39 41 41 42 43 44 45 47 48 48 48 48 47 46 46 46 47 47 47 46 44 42 42 43 44 45 47 48 48 48 49 51 52 52 53 52 52 53 54 54 54 53 53 53 53 55 57 60 63 64 64 66 68 67
42 41 40 38 40 41 40 42 43 43 41 40 38 36 36 36 35 34 34 35 37 39 39 38 36 35 35 35 35 36 36 38 39 40 42 44 43 44 46 47 48 48 48 47 45 45 45 45 45 45 43 42 41 41 42 45 46 47 48 48 49 50 51 51 51 50 50 50 50 50 51 51 51 52 52 52 54 57 61 64 64 63 66 68 68
40 39 37 37 38 39 38 38 40 41 39 38 36 36 36 36 35 34 34 35 36 37 37 36 36 35 35 35 34 34 35 36 38 40 42 43 43 43 45 47 48 49 48 46 45 44 44 43 43 42 41 40 39 40 42 45 46 46 46 47 49 50 50 49 49 48 47 48 48 48 49 50 52 53 53 53 54 56 60 64 63 63 65 65 65
41 40 38 38 39 38 38 38 39 39 38 37 36 36 36 35 34 35 35 36 36 36 36 36 36 35 34 33 32 32 34 36 37 39 41 42 43 44 46 47 48 48 47 46 44 43 42 41 40 40 40 39 38 40 42 44 44 45 45 47 48 48 48 48 47 47 47 49 49 50 51 52 53 54 55 55 56 56 59 61 61 60 62 62 60
42 42 40 40 40 39 38 39 40 39 39 38 38 37 37 36 35 36 36 35 36 36 36 36 35 33 32 31 31 32 34 35 37 38 41 42 43 45 47 48 47 47 46 45 44 43 41 39 38 39 39 38 38 40 41 42 42 43 44 46 47 47 47 47 46 46 48 50 52 52 53 53 54 56 56 57 57 58 59 60 59 57 57 58 57
40 41 41 41 42 42 41 41 42 42 42 41 40 39 37 36 36 37 37 37 37 37 36 35 34 33 32 31 31 32 33 35 36 38 40 42 43 46 48 47 46 45 45 44 43 41 39 37 37 37 37 37 39 40 40 40 41 42 43 45 46 46 46 46 46 47 49 51 52 53 54 54 55 56 57 57 57 58 58 58 57 55 53 53 53
36 37 38 39 42 44 44 44 44 45 45 44 43 41 39 37 37 37 39 40 40 39 38 36 34 34 33 32 33 33 33 34 36 38 40 42 43 45 47 47 46 45 44 43 42 39 37 37 37 36 36 37 39 39 39 39 40 41 42 44 45 45 46 46 47 48 50 51 53 54 54 55 56 56 57 56 56 57 58 58 57 54 52 50 50
32 32 33 34 36 40 42 44 44 45 46 46 46 44 42 40 39 38 38 40 41 41 39 37 35 35 34 34 34 34 33 34 36 38 40 42 43 45 46 46 45 45 44 43 40 38 37 36 36 35 35 37 38 37 38 39 39 41 42 43 44 45 45 46 47 49 51 52 53 54 55 56 56 57 57 56 56 57 57 57 57 55 53 52 50
30 30 30 31 31 33 35 38 40 42 43 44 45 46 45 44 43 41 40 39 40 40 40 38 37 36 35 35 34 34 34 35 37 39 41 42 44 45 45 45 45 44 43 41 39 37 37 36 35 34 35 36 36 36 37 39 39 40 42 43 44 44 45 46 48 50 51 52 53 54 55 56 56 57 56 56 56 56 57 57 57 56 55 55 53
28 29 30 30 30 30 31 32 34 36 38 39 40 42 44 45 45 44 42 40 39 38 38 38 38 37 37 36 35 35 35 35 37 39 41 43 45 46 45 45 44 43 42 40 38 37 37 35 34 34 35 35 35 36 37 39 40 41 42 43 43 44 45 47 48 50 51 52 53 54 55 55 56 56 56 56 56 57 57 57 57 57 57 57 56
31 31 32 32 32 31 32 32 33 34 35 36 36 36 37 39 41 43 43 42 41 39 39 39 38 38 38 38 37 36 36 36 37 39 41 44 46 46 46 45 44 43 41 39 38 37 36 35 34 35 34 34 34 36 37 38 40 40 41 42 43 44 45 46 48 49 51 52 53 54 54 55 55 55 55 56 56 56 57 57 57 57 57 58 58
39 37 36 37 37 37 37 36 36 36 36 36 36 35 34 34 35 37 39 40 39 39 39 39 38 37 38 38 39 39 38 37 38 40 42 44 46 46 45 44 43 42 41 39 37 37 36 34 34 34 33 33 34 35 37 38 39 40 41 42 43 44 45 46 47 49 50 51 52 53 53 54 54 54 54 55 56 56 56 57 58 58 58 59 60
50 48 45 44 43 43 43 43 43 42 41 41 41 40 40 40 39 37 36 35 34 33 34 34 34 34 36 38 41 42 40 40 40 41 42 44 45 45 44 43 42 42 40 38 37 36 35 34 33 33 32 33 34 36 37 38 38 39 40 41 42 43 44 45 47 47 49 50 51 51 52 52 52 53 54 54 55 55 56 56 57 58 59 59 60
58 57 56 54 52 50 50 49 49 48 48 47 46 46 46 47 46 46 45 44 42 40 39 39 39 38 39 40 42 44 43 42 41 42 43 44 45 44 43 42 42 42 39 37 36 35 34 33 32 31 32 34 35 36 36 35 36 38 39 40 42 43 44 45 45 46 47 48 49 50 51 51 51 52 53 54 54 54 55 56 57 58 58 58 59
60 61 61 61 60 59 58 57 55 54 53 52 51 51 51 51 51 52 52 52 52 52 53 53 49 45 43 43 43 44 43 41 41 43 45 46 45 44 43 43 43 41 39 36 36 35 33 32 31 31 33 34 34 34 33 33 35 36 38 39 41 42 43 43 44 45 45 46 47 49 49 50 51 52 53 54 54 54 55 56 56 57 57 57 57
58 59 60 60 61 62 63 63 63 62 60 59 57 56 55 54 54 54 54 54 53 54 56 57 54 50 47 46 45 46 44 43 45 46 47 48 47 45 44 44 43 40 37 36 35 33 31 30 31 32 32 32 31 31 31 32 34 35 37 39 40 41 42 42 43 44 44 45 46 47 48 49 50 51 53 53 54 55 55 55 55 55 55 55 56
56 57 58 58 58 60 61 62 63 64 64 63 61 59 57 55 53 52 52 52 52 52 54 54 53 52 51 50 49 48 46 47 48 49 51 51 49 45 44 43 41 38 36 35 34 32 30 30 31 31 31 29 29 29 29 31 33 36 38 39 40 41 41 41 42 42 43 43 44 45 47 48 50 51 52 53 54 55 55 54 54 55 56 56 55
53 55 56 56 57 58 58 59 60 60 60 60 59 57 56 53 50 49 49 50 50 51 52 52 52 52 52 52 51 50 49 49 50 52 54 52 47 44 44 42 39 37 36 34 32 30 29 30 30 30 29 28 27 27 29 31 34 36 38 39 40 41 40 41 41 41 41 42 44 45 47 48 49 51 52 52 53 54 54 54 54 55 57 58 57
51 53 55 56 56 57 58 58 57 56 55 55 54 53 51 50 48 47 47 49 50 51 51 53 53 54 53 53 51 51 51 52 53 54 52 49 46 45 44 41 38 36 35 32 30 29 29 29 29 27 26 26 25 26 28 31 34 36 38 39 40 40 40 40 40 40 41 42 43 45 47 48 50 51 52 53 53 54 54 54 55 56 58 59 59
50 51 53 54 55 55 56 56 55 55 54 53 51 49 48 48 47 47 46 47 48 49 50 52 53 54 55 54 53 53 54 55 54 52 48 46 45 44 41 39 37 35 33 30 29 28 28 28 26 25 25 24 24 25 28 31 33 36 37 38 39 39 39 39 39 40 40 41 43 45 46 48 50 51 53 53 53 54 54 55 55 57 59 60 60
50 50 51 52 53 53 53 53 53 53 52 52 51 49 48 47 47 46 46 46 46 48 49 50 50 52 55 55 55 55 57 57 54 49 46 45 44 41 39 37 36 33 30 28 28 27 27 26 25 24 23 22 23 25 28 30 33 35 37 38 38 39 39 39 39 40 41 42 43 45 47 48 50 51 53 54 54 54 55 55 56 58 59 60 61
50 49 49 49 49 50 50 50 50 50 50 50 49 49 49 48 47 47 46 47 47 47 48 49 49 50 53 56 57 58 58 57 53 48 45 44 43 40 37 35 33 30 28 27 27 26 25 24 23 22 21 21 23 25 27 31 33 35 36 37 37 38 39 39 40 41 41 42 43 45 47 48 50 51 53 54 54 55 55 56 57 59 60 61 61
50 50 49 49 48 47 47 46 47 47 47 48 48 48 49 48 47 47 47 48 48 47 46 47 48 50 52 56 58 60 60 56 50 45 43 43 42 39 35 33 31 29 28 27 26 25 24 22 21 20 19 20 22 25 27 30 32 34 35 36 36 37 38 39 40 41 42 42 43 45 47 48 49 51 53 54 55 56 57 57 59 61 62 62 62
49 49 50 49 48 47 45 44 43 43 44 45 46 47 47 46 46 47 47 48 49 47 46 47 50 51 52 54 57 58 55 50 45 42 43 42 39 36 33 32 29 28 27 26 25 24 22 20 19 18 19 20 22 25 28 30 31 33 34 35 36 37 38 39 40 41 42 43 43 45 47 48 49 51 53 54 56 57 58 59 60 61 63 64 63
48 48 49 49 48 46 44 42 41 40 40 41 41 42 44 45 46 47 48 49 49 48 48 50 52 52 52 53 53 49 44 42 42 43 42 39 36 34 32 30 28 28 27 26 24 22 20 19 18 18 19 20 23 25 27 29 31 32 33 35 36 37 38 39 40 42 43 44 44 45 47 48 50 51 53 54 57 58 59 61 61 62 63 64 64
46 47 48 48 48 46 44 42 40 39 38 38 39 41 43 45 46 47 48 48 49 50 50 51 50 49 48 47 44 39 37 40 42 42 40 37 35 33 31 29 28 27 26 24 22 20 18 17 17 17 19 21 23 25 27 29 30 31 33 34 36 37 38 39 41 42 43 44 45 46 47 48 50 52 53 55 57 59 60 62 62 62 63 63 63
43 45 45 46 46 46 44 42 40 39 39 40 41 41 42 43 45 46 47 48 49 50 49 47 44 42 41 39 36 35 38 41 41 40 39 37 34 32 31 29 28 26 25 22 20 18 17 16 17 17 19 21 23 25 27 28 30 31 33 34 35 37 38 39 40 42 43 45 45 46 47 48 49 51 53 55 58 60 62 63 64 63 63 63 63
41 42 42 42 42 43 43 42 42 41 41 41 41 40 40 41 43 44 45 47 47 45 41 38 37 38 39 38 38 39 41 41 41 40 38 36 33 32 30 28 27 25 23 20 18 17 16 16 17 17 19 21 23 25 26 28 30 31 32 33 35 37 38 39 41 42 43 45 46 46 48 48 49 51 53 55 58 60 62 64 65 64 64 63 64
40 39 38 38 38 38 40 41 42 42 42 40 39 39 39 40 42 43 44 43 40 35 32 32 34 36 38 40 42 43 42 42 41 40 36 34 32 30 29 27 25 24 21 18 17 16 16 16 17 18 19 21 23 24 26 28 30 31 33 34 35 37 38 40 41 43 44 45 46 47 48 49 50 51 53 55 57 60 62 64 65 65 64 63 64
35 34 34 35 35 36 38 39 40 41 41 40 39 39 40 41 41 41 39 36 32 30 31 33 34 35 36 39 42 43 42 41 40 37 34 32 31 29 27 26 24 22 19 17 16 16 16 16 17 19 20 21 23 25 26 28 30 31 33 34 35 37 39 41 42 43 44 45 46 47 49 49 50 52 53 55 57 59 61 63 65 65 64 64 64
27 27 28 29 31 33 35 37 38 39 38 37 38 39 39 38 38 37 34 31 30 31 32 33 34 36 38 41 42 43 42 40 37 34 32 31 29 28 26 25 23 20 18 17 16 16 16 16 18 19 20 22 23 25 27 28 30 31 33 34 36 37 39 41 42 43 44 45 46 47 48 49 51 52 53 54 56 58 59 62 63 64 64 63 63
22 22 23 25 26 28 30 32 33 34 35 36 37 38 36 35 34 33 31 31 32 33 34 34 36 38 40 41 41 41 39 37 33 32 31 29 28 26 25 23 21 19 18 17 16 16 16 17 18 19 20 22 23 25 27 28 29 31 32 34 35 37 38 40 42 43 44 44 45 46 48 49 50 52 52 54 55 57 58 61 62 63 63 63 63
24 23 24 24 25 26 28 29 31 32 34 36 37 35 33 31 31 31 33 34 35 35 35 36 38 39 40 40 39 38 36 33 32 31 29 27 26 25 24 22 20 18 18 17 17 17 17 18 19 20 21 22 23 25 26 28 29 31 32 34 35 36 38 40 41 42 43 44 44 45 47 48 50 51 52 53 54 56 58 59 61 62 63 62 62
26 26 26 26 27 28 29 30 31 32 33 33 32 29 28 30 33 35 37 37 36 35 36 37 38 39 39 38 37 35 33 31 30 29 27 26 25 24 22 20 19 18 18 18 17 17 18 19 20 21 22 23 24 25 27 28 30 31 33 34 35 36 37 39 41 41 43 43 43 44 45 47 48 50 51 52 53 55 56 58 59 61 62 62 62
26 26 26 27 28 28 29 28 28 27 26 26 27 30 34 37 37 37 36 35 34 35 36 37 37 36 36 35 34 32 30 29 28 27 26 25 24 22 20 19 18 18 18 18 18 18 19 20 21 22 24 24 25 26 27 29 31 32 34 35 36 36 37 39 40 41 42 43 43 43 44 46 47 49 50 51 52 53 54 56 57 59 61 61 61
22 22 23 24 24 24 22 22 22 25 29 33 36 38 38 37 35 34 33 32 33 34 34 35 34 34 33 32 30 29 28 27 26 25 24 23 22 21 19 19 18 18 18 18 19 19 20 22 23 24 25 25 26 27 28 30 31 33 35 36 37 37 38 38 40 41 41 42 42 43 44 45 46 48 49 50 51 52 53 54 55 57 59 60 60
Wind_Direction
265 267 266 263 263 262 263 264 264 265 265 265 268 272 275 276 278 278 276 274 273 275 276 276 276 275 274 273 273 274 278 280 281 281 282 284 284 285 286 285 285 284 284 283 282 281 281 280 279 279 278 276 276 276 278 282 285 287 290 291 293 295 295 295 294 289 288 292 295 297 300 300 299 301 302 300 300 301 299 299 301 302 302 299 296
266 269 266 260 259 261 263 263 263 264 264 263 266 270 273 276 278 278 275 272 271 271 273 273 273 273 272 272 271 271 273 277 279 280 282 282 283 283 284 284 283 283 283 283 282 281 280 279 278 277 275 274 274 276 280 284 287 289 291 293 294 297 298 297 297 295 291 292 295 297 299 299 300 301 302 302 302 301 300 302 304 304 303 302 299
268 268 265 257 254 256 258 260 261 262 263 262 263 268 271 273 275 275 273 270 269 268 269 271 271 271 271 270 270 269 271 273 276 279 280 280 281 281 281 281 281 282 282 282 281 280 279 277 276 275 274 274 275 278 282 284 287 289 291 294 295 297 298 297 298 299 297 295 298 301 300 301 303 304 304 304 304 303 303 305 307 306 305 304 303
266 266 261 255 251 251 253 255 257 259 261 262 262 263 267 269 270 271 270 268 267 266 266 267 268 269 269 269 270 270 270 272 274 276 278 279 279 279 279 279 279 280 280 280 279 278 277 276 275 275 275 276 277 279 281 284 286 289 291 293 294 295 296 297 299 301 301 299 301 303 303 304 305 306 307 306 305 306 307 307 308 307 306 306 305
262 264 261 254 249 248 251 253 255 257 259 260 260 260 262 264 265 266 267 266 264 263 263 264 266 267 267 268 269 269 269 270 271 273 275 277 278 279 278 277 277 279 279 279 278 276 275 274 275 276 276 276 277 279 282 284 286 288 289 291 293 294 295 298 300 302 303 303 304 305 305 304 304 307 309 309 308 308 309 309 308 307 305 305 305
260 261 260 254 249 249 253 254 254 254 254 257 257 256 258 261 262 263 265 263 260 258 258 260 263 265 265 265 266 267 268 269 270 271 272 274 277 278 278 277 276 277 277 276 275 273 272 273 274 276 276 276 278 280 282 283 284 286 289 291 292 293 295 298 300 301 303 304 304 304 304 304 305 309 310 309 309 309 309 307 306 306 305 303 303
261 258 257 254 250 251 255 258 256 252 250 252 252 251 255 258 260 263 264 262 258 254 253 255 260 262 262 262 263 265 267 268 269 269 270 273 276 277 277 275 275 275 274 273 272 270 270 272 274 275 275 276 278 280 281 283 284 286 288 290 291 293 295 298 300 301 302 302 303 303 304 306 309 311 310 309 309 310 310 307 304 304 306 305 304
261 258 256 254 252 253 257 259 257 252 249 249 247 247 253 257 261 264 264 260 258 255 252 252 255 259 259 259 260 262 264 265 266 267 270 272 274 274 274 273 272 272 272 271 269 268 269 271 273 273 274 276 278 279 281 282 284 286 288 289 291 294 297 299 299 299 300 301 303 304 306 309 312 311 311 311 311 312 313 310 307 305 305 305 305
260 256 254 254 255 256 258 258 255 251 249 249 247 248 254 258 262 263 261 258 257 256 253 251 253 255 256 257 259 260 261 263 264 267 269 270 270 270 271 271 271 271 271 270 268 268 268 269 270 271 273 276 278 279 281 282 284 286 287 288 291 294 297 298 298 298 300 302 304 306 308 312 313 312 313 314 315 314 312 311 310 308 307 305 304
261 256 255 257 258 257 256 255 255 254 252 251 250 252 255 259 261 260 258 257 256 255 254 253 253 254 256 257 259 259 259 260 262 265 267 267 267 268 270 271 271 271 271 270 268 267 267 268 269 270 273 276 278 279 280 282 284 286 287 289 292 294 296 297 298 300 302 304 306 308 310 313 314 314 315 316 315 313 312 312 311 311 310 307 304
263 259 259 259 257 255 254 255 258 258 256 253 252 253 255 257 257 257 257 257 256 256 256 255 255 255 256 256 257 256 256 257 259 261 263 265 266 267 269 271 272 272 272 271 269 268 267 267 269 271 274 276 277 278 279 281 284 286 289 291 294 296 297 298 300 303 304 306 308 310 311 312 313 314 314 315 313 313 313 312 311 310 309 307 305
263 261 261 259 255 254 254 255 256 257 256 254 252 253 253 254 255 256 256 256 256 256 255 255 254 254 253 253 253 253 254 255 257 260 262 264 266 267 269 270 271 272 272 271 271 269 268 268 269 272 274 275 275 277 278 281 284 287 289 292 294 296 298 300 303 305 305 305 307 309 310 311 312 312 313 313 312 311 311 309 309 309 307 306 306
259 258 260 258 255 253 252 253 253 254 255 254 251 250 250 251 253 253 253 252 252 251 251 251 250 249 249 250 251 252 253 255 257 259 261 262 263 265 266 268 269 270 270 271 270 270 269 269 270 272 273 273 274 275 278 280 283 286 288 291 293 296 299 301 303 303 303 304 306 308 310 309 309 311 312 311 310 311 311 310 310 309 307 307 307
257 256 258 258 255 253 251 251 250 251 252 251 248 247 247 248 248 248 248 247 247 247 248 248 248 248 249 250 250 251 251 253 255 256 258 259 261 262 264 265 267 268 269 269 269 269 269 269 270 271 271 272 273 274 277 280 282 285 288 291 293 295 298 300 301 302 303 305 305 307 308 308 309 311 313 313 312 312 312 311 310 309 308 308 307
258 256 258 258 255 254 253 250 247 248 250 248 245 244 244 245 246 247 246 246 246 246 247 248 248 248 248 248 248 249 249 251 253 254 255 257 259 261 262 263 266 267 267 268 269 269 270 270 270 270 270 271 272 274 278 280 283 286 289 291 293 294 296 299 301 302 303 305 305 307 309 311 312 314 315 315 313 312 312 309 308 308 308 306 304
256 255 257 258 255 255 256 251 246 245 246 244 243 242 242 243 245 246 246 246 246 246 246 247 247 247 247 246 246 247 248 249 251 252 253 255 258 260 261 263 265 266 267 268 270 271 272 271 270 270 270 270 272 275 279 282 285 287 290 292 294 295 298 301 302 303 305 307 308 310 311 313 313 314 314 313 312 312 311 309 309 310 309 305 303
255 255 257 257 256 257 257 250 244 242 241 241 240 240 241 244 244 245 245 245 246 246 246 246 245 244 243 243 243 245 246 248 250 251 252 254 258 261 262 263 265 266 267 269 271 272 272 271 269 269 269 270 272 276 280 283 286 289 292 294 296 298 300 302 303 305 307 308 309 310 311 312 313 312 313 313 314 313 311 309 310 310 307 304 303
254 255 255 253 254 255 252 245 240 239 239 238 239 240 242 246 247 247 245 244 243 243 242 241 240 239 239 240 241 243 244 245 247 249 250 254 258 260 262 264 265 267 268 270 271 271 271 269 268 267 268 269 273 277 281 284 287 291 294 296 298 300 302 303 304 306 307 308 310 312 313 314 314 315 316 316 315 313 310 309 309 307 304 303 302
255 255 254 252 250 247 242 238 235 235 235 236 237 240 242 246 248 248 247 245 243 241 239 238 238 238 240 242 243 244 245 245 247 247 250 253 256 258 261 263 265 267 269 270 271 271 269 266 265 266 267 270 274 278 282 286 289 293 296 298 300 302 303 304 306 308 310 312 315 316 317 317 317 317 317 316 314 312 309 308 308 305 302 301 300
256 256 255 253 248 241 235 231 229 229 231 233 236 239 243 247 247 246 246 246 244 241 240 239 240 243 245 247 248 248 249 249 249 249 250 254 256 258 259 262 265 267 269 270 270 269 266 263 262 264 268 272 277 281 285 289 293 296 299 300 302 304 305 306 309 312 315 317 318 319 320 320 319 318 317 316 314 312 310 309 308 306 302 300 299
254 256 256 253 248 241 232 228 227 228 230 233 235 239 244 246 245 242 242 242 243 244 243 243 245 248 250 252 253 253 253 253 252 251 252 254 257 258 259 262 264 266 267 268 267 266 262 260 261 264 269 275 280 284 289 293 296 298 300 302 304 306 307 309 313 317 319 319 319 320 321 320 318 317 316 315 313 311 310 310 309 307 302 299 297
248 251 252 250 248 244 238 234 232 231 233 234 236 238 240 242 243 242 242 241 242 244 245 246 248 250 253 256 257 257 257 255 253 253 253 255 259 260 260 262 264 265 266 266 264 261 258 258 260 265 271 277 282 287 292 295 297 298 300 303 305 307 310 314 317 319 320 320 320 320 320 319 317 316 315 314 312 311 311 311 310 309 304 300 296
239 240 243 244 245 246 245 243 241 240 239 238 237 236 236 238 240 242 243 243 243 244 246 247 249 251 254 258 259 259 258 257 255 254 254 255 259 261 261 262 264 265 265 263 260 256 255 257 261 266 272 278 283 289 293 294 295 298 301 304 306 309 313 317 319 320 320 321 320 319 319 318 317 316 315 313 313 312 312 313 312 311 308 304 299
234 235 236 237 240 242 245 246 247 247 246 245 242 240 239 239 240 241 243 245 245 245 245 245 247 251 254 257 258 259 259 259 258 257 255 256 258 260 261 262 263 264 263 259 255 252 253 256 261 267 273 278 284 290 292 292 295 299 302 305 309 312 316 318 319 320 320 320 319 319 319 318 317 316 315 314 314 314 314 314 314 313 311 308 304
238 237 236 238 239 240 242 244 246 246 247 248 248 248 246 245 243 242 241 243 244 245 245 245 247 250 252 254 255 257 259 259 258 257 257 256 256 257 259 260 261 262 259 255 251 250 252 256 262 268 273 279 285 289 290 292 296 299 303 308 312 315 317 319 320 320 319 319 319 319 319 318 317 316 316 316 315 316 316 315 315 314 313 310 306
251 246 243 243 243 244 246 247 249 249 248 247 247 249 251 250 247 245 243 243 245 245 245 246 247 248 250 251 252 254 255 256 256 256 256 255 254 254 257 258 259 259 255 250 248 249 252 257 263 269 274 280 285 287 289 292 296 301 306 311 314 317 318 319 319 318 319 319 320 320 319 318 318 317 317 316 316 316 317 317 316 315 314 311 308
264 260 254 251 249 249 251 252 255 258 257 254 251 251 254 257 255 251 247 246 247 248 247 248 249 250 253 254 253 253 253 252 252 254 254 254 253 253 255 257 257 256 252 247 246 248 253 258 264 269 275 281 283 285 288 292 297 304 310 313 316 317 317 318 318 319 320 320 320 319 319 319 318 318 317 316 316 317 318 318 317 317 315 312 309
272 270 266 262 259 257 257 257 259 261 263 263 261 259 260 262 262 260 258 256 257 257 257 257 257 259 260 260 258 256 254 252 251 252 253 253 253 253 256 257 255 252 247 244 245 249 254 259 265 271 276 279 281 284 288 294 301 307 312 314 315 316 316 317 318 319 320 320 319 319 319 319 319 319 318 317 318 319 320 320 319 317 316 313 310
279 276 273 270 267 266 265 265 265 265 266 266 266 265 265 265 266 267 267 266 266 266 266 267 267 266 266 266 263 260 257 255 253 249 248 249 250 252 254 254 251 246 243 241 245 250 255 261 266 272 275 277 280 285 291 298 305 310 313 314 314 315 316 317 318 319 319 319 319 319 320 321 321 320 319 319 320 321 321 321 319 318 316 314 311
282 281 278 275 272 271 271 270 270 270 270 270 270 269 268 269 270 271 271 271 270 270 269 270 269 268 266 264 261 257 255 253 249 245 245 246 247 250 251 248 245 241 239 240 245 251 257 263 267 271 273 277 282 288 295 302 308 311 312 312 313 314 316 317 318 319 320 320 320 321 322 322 322 322 322 323 323 323 323 322 320 319 317 315 312
279 279 279 278 275 274 273 272 272 272 272 273 274 273 273 274 274 273 272 272 270 269 269 270 270 268 263 258 253 249 245 241 239 240 242 244 245 247 247 245 241 237 236 240 246 252 258 263 266 269 273 278 285 292 298 305 309 310 311 311 312 314 316 317 319 320 321 322 323 323 324 324 324 324 324 325 324 324 324 323 322 321 320 318 315
274 274 275 274 273 272 272 271 272 272 272 272 273 273 275 275 274 273 272 270 267 266 266 266 266 265 261 256 251 245 240 237 236 236 237 238 241 244 244 241 237 234 235 240 246 252 257 261 264 269 274 280 287 294 301 307 309 309 310 311 312 315 316 318 320 323 324 325 325 325 326 326 326 325 325 325 325 325 325 324 324 324 323 322 319
269 269 269 268 268 268 268 268 269 269 269 270 271 271 272 272 272 272 271 267 264 261 260 260 260 259 256 252 246 240 235 235 236 237 237 238 240 243 241 236 232 232 236 241 247 252 256 260 263 269 275 281 289 297 304 308 308 309 310 311 313 315 317 320 322 325 327 327 327 327 329 329 328 326 325 326 326 326 326 326 327 327 327 326 323
268 266 266 266 265 264 264 265 266 266 266 267 268 269 270 270 270 270 269 265 261 257 254 255 256 254 250 245 239 234 231 232 234 236 237 238 240 242 238 231 229 231 236 241 246 250 255 259 263 268 275 284 293 300 305 307 308 309 311 312 314 316 319 321 324 326 327 328 328 329 331 330 329 328 327 327 326 326 327 328 328 329 329 328 325
272 269 268 267 266 265 264 264 265 265 266 267 267 268 269 269 269 269 268 265 261 257 253 253 255 254 249 242 236 231 230 230 231 232 232 235 239 239 232 227 228 233 237 241 245 250 254 258 263 269 277 287 296 302 306 307 308 309 311 313 315 317 320 323 325 326 327 328 329 330 331 331 330 329 328 328 327 327 328 329 330 330 330 329 327
273 272 270 269 268 267 266 265 265 265 266 267 267 267 267 267 268 267 266 263 260 257 253 252 253 253 248 241 235 231 229 229 229 228 231 237 240 234 226 225 230 234 238 241 245 249 253 258 264 272 281 291 299 303 306 308 308 310 311 313 316 319 322 324 325 326 328 329 330 331 331 332 331 331 330 329 328 328 329 330 330 331 331 330 328
271 270 269 268 267 267 266 265 264 264 265 265 264 264 264 264 265 264 262 260 259 257 254 251 250 250 247 241 236 231 229 228 227 228 233 238 236 226 222 226 231 234 238 242 245 249 253 259 266 275 285 294 300 304 307 307 308 310 312 315 319 321 323 325 326 327 329 329 329 330 331 332 332 332 331 330 330 329 330 331 331 332 332 331 329
269 268 266 265 264 264 263 263 262 262 262 261 261 260 260 260 260 259 256 254 254 255 255 253 250 248 246 244 240 236 231 227 226 229 234 234 228 222 223 228 231 234 238 242 245 249 254 260 269 279 288 296 301 305 306 307 308 310 314 317 320 322 324 325 326 327 328 329 330 330 331 331 332 333 333 333 332 332 332 333 333 333 333 332 331
267 265 263 262 261 260 260 260 260 260 259 258 258 257 256 256 256 255 253 251 251 251 254 254 249 245 244 244 242 238 234 229 227 230 232 228 222 220 224 229 231 235 238 241 243 248 254 262 272 282 291 297 302 304 305 307 309 312 316 319 321 323 324 325 326 326 327 329 330 330 330 331 332 333 334 336 336 335 335 335 335 335 334 333 332
264 262 260 259 259 258 258 258 259 259 258 257 256 255 254 252 251 250 249 248 248 249 252 252 248 242 241 241 239 237 235 233 231 231 228 222 218 220 225 229 231 234 237 239 243 249 257 266 276 285 293 298 302 304 305 308 311 314 318 320 322 324 325 326 327 327 328 329 330 330 330 331 332 333 335 337 338 338 338 337 336 336 335 334 333
262 261 259 258 257 255 254 254 254 254 254 254 254 255 255 253 251 248 247 246 245 247 249 249 245 240 238 236 233 232 233 234 233 229 222 217 217 222 226 228 230 233 235 239 244 251 260 269 278 287 293 299 302 304 306 310 313 316 319 321 322 325 327 327 327 327 328 329 330 329 330 332 332 333 335 338 338 339 339 339 338 337 336 335 334
260 259 257 256 254 252 250 248 248 249 250 251 253 255 256 255 253 249 246 245 245 246 248 246 241 236 231 226 223 223 227 229 226 221 216 215 218 222 225 227 229 231 234 239 245 253 262 270 279 287 294 298 302 305 308 311 314 316 319 321 324 326 327 327 327 327 328 328 328 329 331 332 332 333 336 338 338 339 340 340 339 338 337 336 336
259 257 256 254 253 251 247 245 244 246 248 251 252 253 254 254 250 247 244 243 244 245 245 241 234 227 221 215 214 219 224 222 217 213 213 216 219 221 223 225 227 230 234 239 246 254 262 271 280 288 294 298 302 306 310 312 314 316 319 322 325 327 327 326 327 327 327 327 328 330 331 331 332 334 336 338 338 339 340 341 340 340 339 338 338
259 257 254 253 252 250 248 245 244 246 249 251 251 250 248 246 244 241 240 240 239 237 233 228 222 218 213 210 212 219 222 218 212 210 212 215 218 220 222 224 226 230 234 239 246 255 264 273 282 289 294 299 304 307 310 312 314 317 320 324 326 327 326 327 327 327 327 327 328 330 330 331 334 335 336 337 339 339 340 341 341 341 340 340 339
260 257 254 251 249 248 247 245 245 247 250 251 249 246 242 240 239 238 236 233 227 219 213 210 207 205 206 209 215 220 220 214 210 209 212 214 217 219 221 223 226 230 235 240 248 257 266 276 284 290 295 301 305 308 310 312 315 318 321 325 327 327 327 328 328 327 327 328 329 329 330 332 335 336 336 337 338 339 339 340 341 341 341 341 340
260 258 255 253 250 249 248 247 247 248 249 249 246 242 238 235 233 231 227 219 208 199 195 194 195 200 207 214 218 219 214 209 207 208 211 213 215 218 220 223 227 231 236 243 251 260 268 277 284 291 297 302 306 308 310 313 316 319 322 324 326 327 328 328 327 326 328 329 329 329 331 333 334 335 336 337 338 338 339 340 341 342 342 341 341
263 259 256 255 254 252 250 248 248 248 247 244 239 235 230 227 223 217 207 195 186 182 182 187 195 205 211 214 214 211 207 205 205 208 210 212 215 218 221 224 228 233 239 245 253 261 269 278 285 291 297 302 305 307 310 313 316 319 321 323 325 326 326 326 326 327 328 328 328 330 332 333 334 335 336 336 337 337 338 339 341 342 343 342 341
260 257 254 251 249 248 248 246 245 242 239 235 231 227 222 214 204 193 182 175 173 175 181 191 200 208 210 208 206 204 203 203 205 206 209 212 215 218 222 226 230 236 243 250 257 265 272 280 286 291 296 300 303 306 310 313 315 317 319 321 323 324 324 324 325 326 326 326 329 332 333 333 333 334 335 336 336 337 338 339 341 342 343 342 342
257 255 252 248 244 241 240 237 234 232 229 226 221 211 198 184 174 169 166 166 171 180 190 198 204 206 204 202 200 200 201 202 204 206 209 213 217 221 225 229 234 240 248 255 263 270 276 283 289 293 296 300 303 307 310 313 315 316 318 319 320 321 322 322 323 324 324 327 330 332 332 332 333 333 334 335 336 336 337 339 341 342 343 343 343
256 253 249 243 238 235 232 229 226 221 212 199 184 171 162 159 159 161 164 170 179 188 194 198 200 200 199 198 199 199 200 202 204 207 211 215 219 224 228 232 238 246 253 260 268 275 281 287 291 293 296 300 304 307 310 313 314 315 316 317 318 319 320 321 322 323 325 327 329 330 331 332 332 332 333 334 335 335 336 338 340 342 343 343 343
247 244 240 235 230 224 215 203 188 174 163 155 151 150 151 154 158 162 168 176 184 189 192 193 193 194 195 196 197 198 200 203 206 210 214 218 222 227 232 237 244 252 258 266 273 280 284 288 291 293 297 300 304 307 310 312 313 313 314 315 316 318 319 320 321 323 325 327 328 329 331 332 331 331 332 333 334 334 336 337 340 342 343 344 344
Height
3015 3015 3015 3015 3014 3014 3014 3014 3014 3014 3015 3014 3015 3015 3015 3014 3014 3014 3014 3014 3014 3014 3015 3014 3014 3013 3013 3013 3013 3013 3013 3013 3012 3012 3012 3011 3010 3009 3008 3009 3009 3009 3009 3009 3008 3008 3007 3007 3005 3004 3004 3003 3002 3001 3000 2999 2998 2998 2997 2996 2996 2995 2993 2991 2988 2987 2990 2992 2988 2982 2977 2974 2972 2969 2965 2963 2963 2961 2958 2957 2955 2953 2950 2949 2948
3010 3010 3010 3009 3008 3009 3009 3008 3008 3008 3008 3009 3009 3010 3009 3009 3009 3009 3009 3010 3010 3010 3009 3009 3009 3008 3008 3007 3007 3007 3007 3007 3007 3008 3008 3007 3006 3005 3004 3004 3004 3004 3004 3004 3004 3003 3002 3002 3001 3000 2999 2998 2997 2995 2995 2994 2993 2993 2992 2991 2991 2990 2989 2987 2985 2982 2982 2984 2984 2980 2974 2969 2966 2964 2960 2956 2954 2952 2949 2948 2947 2945 2943 2940 2939
3005 3004 3003 3002 3002 3003 3002 3001 3001 3001 3002 3002 3003 3004 3004 3004 3003 3004 3004 3005 3004 3004 3004 3004 3003 3003 3003 3002 3002 3002 3002 3002 3002 3003 3003 3002 3001 3000 2999 2999 2999 3000 3000 2999 2999 2998 2998 2997 2996 2995 2994 2993 2992 2991 2990 2989 2989 2988 2988 2987 2986 2986 2984 2982 2980 2978 2975 2975 2976 2974 2968 2962 2959 2957 2954 2950 2946 2943 2941 2940 2938 2936 2934 2932 2930
2998 2997 2996 2995 2995 2995 2994 2994 2994 2995 2995 2997 2997 2998 2998 2998 2998 2998 2999 2999 2998 2998 2998 2998 2998 2997 2997 2997 2997 2996 2996 2996 2997 2997 2998 2997 2996 2995 2995 2994 2994 2994 2995 2994 2994 2993 2993 2992 2991 2990 2990 2988 2987 2986 2985 2985 2984 2983 2983 2982 2981 2980 2979 2977 2975 2973 2969 2967 2968 2967 2962 2955 2952 2950 2947 2943 2939 2936 2933 2931 2929 2928 2926 2923 2921
2991 2990 2989 2989 2988 2988 2988 2988 2988 2989 2990 2991 2991 2992 2991 2991 2991 2992 2992 2992 2992 2992 2992 2991 2992 2992 2992 2992 2991 2991 2991 2991 2992 2992 2992 2992 2991 2991 2990 2990 2990 2989 2989 2989 2989 2988 2987 2987 2986 2985 2984 2983 2982 2982 2981 2980 2979 2978 2977 2976 2975 2974 2972 2971 2969 2967 2964 2961 2959 2959 2956 2951 2946 2944 2940 2934 2930 2929 2927 2923 2920 2919 2918 2917 2913
2984 2983 2983 2982 2981 2981 2981 2982 2982 2983 2984 2984 2985 2986 2984 2984 2985 2985 2985 2985 2985 2985 2985 2985 2986 2986 2986 2986 2985 2985 2985 2986 2986 2986 2986 2986 2986 2986 2986 2986 2985 2984 2984 2983 2983 2983 2982 2981 2980 2979 2979 2978 2977 2977 2976 2975 2974 2973 2972 2970 2969 2968 2966 2965 2963 2960 2958 2955 2952 2951 2950 2946 2941 2939 2935 2928 2921 2918 2917 2915 2912 2909 2908 2909 2907
2976 2976 2975 2975 2974 2974 2974 2975 2976 2977 2977 2977 2977 2977 2977 2977 2977 2978 2978 2978 2977 2977 2978 2979 2980 2980 2980 2979 2980 2980 2980 2980 2980 2980 2980 2981 2981 2981 2981 2981 2980 2979 2978 2978 2978 2977 2977 2976 2975 2974 2973 2973 2972 2971 2971 2970 2968 2967 2966 2965 2963 2961 2960 2958 2956 2954 2952 2949 2947 2945 2943 2940 2936 2932 2928 2922 2915 2909 2905 2904 2904 2902 2898 2897 2896
2968 2968 2968 2967 2967 2967 2968 2969 2969 2969 2969 2969 2969 2969 2969 2970 2970 2971 2971 2970 2970 2970 2971 2972 2973 2973 2973 2973 2973 2974 2974 2974 2974 2975 2975 2976 2976 2976 2976 2975 2975 2974 2973 2973 2972 2972 2971 2970 2970 2969 2968 2967 2967 2966 2965 2964 2963 2962 2961 2959 2957 2955 2953 2951 2949 2948 2946 2943 2940 2937 2934 2932 2929 2924 2919 2913 2908 2903 2897 2892 2893 2893 2889 2887 2885
2961 2961 2960 2960 2961 2962 2962 2962 2961 2962 2961 2961 2961 2961 2962 2962 2963 2963 2963 2962 2963 2963 2964 2965 2965 2966 2966 2966 2967 2968 2968 2968 2969 2970 2970 2970 2970 2970 2970 2970 2969 2968 2968 2967 2967 2966 2966 2965 2964 2963 2963 2962 2961 2961 2960 2959 2958 2956 2955 2953 2951 2949 2947 2945 2943 2941 2938 2935 2932 2929 2925 2922 2919 2913 2909 2904 2898 2894 2890 2885 2883 2881 2877 2876 2878
2954 2954 2953 2954 2955 2956 2955 2955 2955 2955 2955 2955 2956 2956 2955 2956 2956 2955 2955 2955 2955 2956 2957 2957 2958 2958 2959 2960 2961 2961 2962 2963 2964 2964 2964 2964 2964 2964 2964 2964 2963 2963 2962 2962 2961 2961 2961 2960 2959 2958 2958 2957 2956 2955 2954 2953 2952 2951 2949 2947 2946 2944 2941 2939 2937 2934 2930 2926 2923 2919 2914 2911 2908 2903 2898 2895 2891 2886 2882 2877 2873 2871 2866 2862 2865
2947 2947 2947 2948 2948 2948 2948 2949 2949 2949 2949 2950 2950 2950 2950 2950 2949 2948 2948 2948 2948 2949 2949 2950 2950 2951 2952 2953 2954 2954 2955 2956 2957 2957 2957 2958 2958 2959 2959 2959 2958 2957 2957 2957 2956 2956 2955 2955 2954 2953 2953 2952 2951 2950 2949 2948 2946 2945 2943 2940 2938 2936 2934 2931 2928 2925 2920 2916 2913 2909 2904 2901 2900 2895 2890 2887 2883 2879 2875 2870 2865 2862 2859 2852 2850
2941 2941 2941 2942 2941 2941 2941 2942 2942 2942 2943 2943 2944 2944 2944 2943 2943 2942 2942 2942 2942 2942 2942 2942 2943 2944 2944 2946 2947 2948 2949 2950 2951 2951 2952 2952 2953 2953 2953 2953 2952 2952 2952 2951 2951 2951 2950 2950 2949 2948 2948 2946 2945 2944 2943 2942 2940 2939 2937 2935 2932 2930 2927 2924 2920 2916 2912 2908 2905 2902 2898 2894 2892 2890 2886 2879 2875 2873 2869 2865 2861 2855 2851 2847 2841
2933 2934 2934 2934 2934 2934 2935 2935 2935 2935 2936 2936 2937 2937 2937 2937 2937 2937 2936 2936 2935 2935 2935 2935 2936 2937 2938 2939 2940 2942 2943 2944 2945 2945 2946 2946 2946 2947 2947 2947 2947 2947 2946 2946 2946 2946 2945 2945 2944 2943 2942 2941 2939 2938 2937 2936 2935 2933 2932 2929 2927 2925 2922 2919 2915 2911 2906 2901 2898 2896 2893 2888 2885 2884 2882 2874 2868 2865 2860 2856 2853 2847 2841 2840 2835
2925 2925 2926 2926 2927 2928 2928 2928 2929 2929 2929 2930 2930 2930 2930 2931 2931 2931 2931 2930 2930 2929 2929 2930 2930 2931 2932 2933 2934 2936 2937 2937 2938 2938 2939 2939 2940 2940 2940 2940 2941 2941 2941 2941 2941 2941 2940 2940 2939 2938 2937 2936 2935 2933 2932 2930 2929 2927 2926 2924 2922 2919 2917 2914 2911 2906 2901 2897 2893 2891 2888 2884 2878 2875 2874 2868 2861 2857 2852 2847 2844 2839 2833 2832 2828
2917 2917 2918 2919 2920 2921 2922 2922 2922 2923 2923 2923 2923 2924 2924 2925 2925 2925 2925 2924 2924 2924 2924 2924 2924 2925 2926 2927 2928 2929 2930 2930 2930 2931 2932 2933 2933 2933 2934 2934 2935 2935 2935 2935 2936 2936 2935 2935 2934 2933 2932 2931 2930 2928 2927 2925 2923 2921 2920 2918 2915 2913 2911 2908 2904 2899 2896 2892 2887 2884 2881 2876 2870 2866 2865 2862 2855 2851 2847 2841 2837 2834 2828 2824 2822
2910 2910 2911 2913 2914 2915 2915 2915 2915 2916 2917 2917 2917 2918 2918 2918 2919 2919 2919 2918 2918 2917 2917 2918 2918 2919 2920 2920 2921 2922 2923 2923 2923 2924 2925 2926 2926 2927 2927 2928 2929 2929 2930 2930 2930 2931 2930 2929 2929 2928 2927 2926 2925 2923 2921 2919 2917 2915 2913 2911 2908 2906 2903 2901 2897 2893 2889 2885 2881 2877 2873 2869 2866 2862 2860 2857 2852 2846 2840 2835 2832 2828 2821 2815 2812
2902 2903 2905 2906 2907 2908 2908 2908 2909 2910 2910 2911 2912 2912 2912 2912 2913 2913 2912 2912 2912 2911 2912 2912 2913 2913 2914 2914 2915 2915 2915 2916 2916 2917 2918 2918 2919 2921 2922 2923 2923 2923 2924 2924 2925 2925 2924 2923 2923 2921 2921 2920 2919 2918 2916 2914 2911 2909 2907 2904 2901 2899 2896 2893 2890 2887 2884 2880 2876 2873 2869 2866 2862 2859 2855 2852 2847 2842 2834 2828 2827 2823 2814 2807 2803
2895 2896 2897 2898 2899 2900 2901 2902 2903 2904 2905 2906 2906 2906 2906 2906 2906 2907 2907 2906 2906 2906 2906 2906 2906 2907 2907 2908 2908 2908 2908 2909 2909 2910 2912 2912 2913 2915 2916 2916 2917 2917 2918 2918 2919 2918 2917 2917 2916 2915 2915 2914 2913 2912 2910 2908 2905 2903 2900 2898 2895 2892 2890 2886 2884 2881 2878 2874 2871 2867 2863 2860 2856 2852 2848 2844 2841 2837 2829 2823 2821 2816 2809 2803 2799
2889 2890 2891 2891 2891 2892 2894 2895 2896 2897 2898 2899 2899 2899 2900 2900 2900 2901 2900 2900 2900 2900 2900 2900 2900 2901 2901 2901 2901 2901 2901 2902 2903 2904 2905 2906 2907 2908 2909 2910 2910 2911 2911 2911 2911 2911 2911 2911 2910 2909 2909 2908 2907 2906 2904 2901 2899 2897 2894 2891 2889 2886 2883 2880 2877 2874 2870 2866 2863 2859 2856 2852 2847 2843 2840 2837 2834 2830 2824 2818 2814 2809 2802 2798 2795
2883 2884 2884 2885 2885 2886 2887 2888 2889 2890 2891 2892 2892 2893 2893 2894 2895 2895 2895 2895 2895 2895 2895 2895 2895 2895 2896 2895 2895 2895 2895 2896 2897 2898 2899 2900 2901 2902 2903 2903 2904 2904 2905 2905 2904 2904 2905 2905 2904 2903 2903 2902 2901 2899 2898 2895 2893 2891 2888 2885 2883 2880 2876 2873 2871 2867 2862 2858 2854 2851 2847 2844 2839 2835 2832 2829 2825 2822 2817 2812 2807 2802 2795 2790 2787
2877 2878 2878 2880 2880 2880 2881 2881 2882 2883 2884 2885 2886 2886 2887 2888 2889 2889 2889 2889 2889 2889 2889 2889 2889 2889 2890 2889 2889 2889 2890 2890 2891 2892 2893 2893 2894 2895 2896 2897 2898 2898 2898 2898 2898 2898 2899 2898 2898 2898 2897 2896 2895 2893 2891 2889 2886 2885 2883 2880 2877 2874 2870 2867 2863 2859 2855 2851 2847 2843 2840 2836 2832 2828 2824 2821 2818 2813 2810 2805 2800 2796 2790 2783 2780
2871 2871 2872 2873 2874 2874 2875 2875 2875 2876 2877 2878 2879 2880 2881 2881 2882 2882 2883 2883 2883 2883 2883 2883 2883 2883 2883 2883 2883 2884 2884 2885 2885 2886 2886 2886 2887 2889 2890 2891 2892 2892 2892 2892 2892 2893 2893 2892 2892 2892 2891 2890 2889 2888 2886 2883 2881 2879 2877 2874 2871 2868 2864 2860 2856 2852 2849 2845 2840 2837 2833 2830 2826 2822 2818 2815 2811 2806 2801 2797 2793 2788 2784 2779 2775
2863 2864 2864 2865 2867 2868 2869 2870 2871 2871 2871 2871 2872 2873 2874 2874 2874 2875 2875 2875 2875 2876 2876 2875 2876 2876 2877 2877 2878 2878 2878 2878 2879 2879 2879 2879 2880 2882 2883 2884 2885 2886 2886 2887 2887 2887 2887 2886 2886 2886 2885 2884 2884 2882 2881 2879 2876 2874 2871 2869 2866 2863 2859 2854 2850 2846 2842 2838 2834 2830 2827 2823 2819 2815 2812 2808 2804 2799 2793 2789 2785 2780 2776 2773 2769
2855 2855 2856 2857 2859 2861 2863 2864 2865 2865 2866 2866 2866 2866 2867 2867 2867 2867 2868 2868 2868 2868 2868 2869 2869 2869 2870 2871 2871 2871 2871 2872 2872 2872 2872 2873 2874 2875 2877 2877 2878 2879 2880 2881 2882 2881 2881 2880 2880 2879 2879 2878 2878 2877 2876 2874 2871 2868 2866 2864 2861 2857 2853 2849 2844 2840 2836 2832 2829 2825 2820 2816 2812 2808 2804 2800 2796 2792 2787 2782 2777 2773 2768 2764 2761
2848 2849 2849 2851 2852 2853 2855 2856 2857 2858 2859 2859 2860 2861 2861 2860 2860 2860 2860 2860 2860 2861 2861 2862 2862 2862 2863 2863 2864 2864 2864 2864 2865 2866 2866 2867 2868 2868 2870 2871 2871 2872 2874 2875 2876 2876 2875 2875 2875 2874 2873 2872 2872 2871 2870 2868 2866 2863 2860 2858 2855 2851 2847 2843 2839 2835 2831 2827 2823 2819 2815 2811 2807 2802 2797 2793 2789 2784 2780 2775 2770 2766 2761 2756 2752
2842 2842 2842 2844 2845 2846 2847 2848 2849 2850 2851 2851 2852 2853 2853 2853 2853 2853 2853 2853 2853 2854 2854 2854 2855 2855 2856 2856 2857 2857 2857 2857 2858 2859 2859 2860 2861 2861 2863 2864 2864 2866 2868 2869 2870 2870 2870 2870 2869 2868 2867 2866 2866 2866 2865 2863 2860 2858 2855 2851 2848 2845 2842 2838 2834 2830 2826 2822 2817 2813 2809 2805 2801 2796 2791 2786 2783 2778 2773 2768 2763 2759 2754 2749 2743
2835 2835 2835 2836 2837 2838 2839 2840 2841 2842 2843 2843 2844 2844 2845 2846 2846 2846 2846 2846 2847 2847 2847 2847 2848 2848 2849 2850 2850 2849 2849 2849 2850 2851 2852 2852 2853 2854 2856 2857 2858 2860 2861 2863 2864 2865 2865 2865 2864 2863 2862 2861 2860 2860 2858 2857 2854 2852 2848 2845 2842 2840 2837 2833 2829 2825 2820 2816 2812 2807 2804 2799 2795 2790 2786 2781 2777 2772 2767 2761 2756 2752 2747 2741 2734
2827 2828 2828 2829 2829 2830 2831 2832 2833 2834 2834 2835 2835 2836 2837 2837 2838 2839 2840 2840 2840 2841 2841 2842 2843 2843 2844 2844 2844 2843 2842 2841 2842 2843 2844 2845 2846 2847 2849 2851 2852 2853 2856 2858 2859 2860 2860 2859 2858 2857 2856 2855 2855 2854 2852 2851 2848 2846 2843 2840 2837 2835 2832 2828 2824 2820 2815 2811 2807 2803 2799 2794 2789 2785 2781 2776 2771 2766 2761 2756 2750 2745 2740 2734 2727
2818 2819 2820 2821 2822 2822 2823 2824 2825 2825 2826 2826 2827 2828 2828 2829 2830 2831 2832 2833 2833 2834 2835 2836 2838 2839 2839 2838 2838 2836 2835 2835 2837 2838 2838 2838 2839 2840 2842 2844 2845 2847 2849 2852 2853 2854 2855 2854 2854 2852 2851 2850 2849 2847 2846 2844 2843 2840 2838 2835 2832 2830 2827 2823 2820 2816 2812 2807 2802 2797 2793 2788 2784 2780 2774 2770 2765 2760 2755 2750 2744 2738 2733 2727 2720
2808 2809 2810 2812 2813 2814 2814 2815 2815 2816 2817 2818 2819 2820 2820 2821 2822 2823 2824 2825 2826 2826 2827 2828 2829 2831 2831 2832 2832 2831 2831 2832 2833 2833 2832 2832 2833 2834 2835 2837 2838 2840 2843 2846 2847 2848 2849 2849 2848 2848 2847 2845 2843 2842 2840 2839 2837 2835 2833 2831 2828 2826 2822 2819 2815 2811 2807 2802 2797 2792 2787 2783 2778 2774 2768 2763 2759 2754 2750 2744 2738 2732 2726 2720 2714
2799 2799 2800 2801 2803 2803 2804 2805 2806 2806 2807 2809 2810 2811 2812 2813 2814 2815 2816 2817 2817 2817 2817 2818 2819 2820 2822 2823 2824 2824 2825 2826 2826 2826 2826 2826 2827 2828 2830 2831 2832 2835 2838 2840 2841 2843 2844 2844 2844 2843 2842 2840 2838 2836 2835 2834 2832 2831 2828 2826 2824 2821 2817 2814 2810 2806 2801 2797 2792 2787 2782 2778 2773 2767 2762 2757 2752 2748 2744 2738 2732 2726 2721 2714 2708
2789 2790 2791 2791 2792 2792 2793 2794 2795 2796 2796 2798 2799 2800 2802 2803 2804 2805 2806 2807 2808 2808 2808 2809 2810 2810 2811 2813 2814 2816 2818 2818 2818 2819 2820 2820 2821 2823 2825 2826 2827 2830 2832 2834 2836 2838 2839 2839 2839 2838 2837 2835 2833 2831 2830 2829 2827 2825 2824 2821 2818 2815 2812 2809 2805 2800 2796 2791 2786 2782 2777 2772 2767 2762 2757 2752 2747 2743 2738 2732 2727 2720 2714 2708 2702
2779 2780 2780 2781 2781 2782 2782 2783 2784 2785 2786 2787 2788 2790 2791 2793 2794 2796 2796 2797 2797 2798 2799 2800 2800 2801 2802 2803 2805 2807 2809 2810 2812 2813 2814 2815 2818 2819 2820 2821 2823 2825 2826 2829 2831 2832 2833 2834 2834 2833 2831 2829 2828 2826 2825 2824 2822 2820 2818 2815 2813 2810 2807 2803 2799 2795 2790 2786 2781 2777 2772 2767 2762 2757 2753 2748 2743 2737 2732 2726 2721 2715 2708 2702 2696
2769 2769 2770 2771 2771 2771 2772 2773 2773 2774 2776 2777 2778 2780 2782 2783 2785 2786 2786 2787 2788 2789 2790 2791 2791 2792 2793 2795 2796 2798 2800 2802 2805 2807 2810 2812 2814 2815 2816 2817 2819 2820 2822 2824 2825 2827 2828 2829 2828 2827 2826 2824 2822 2821 2820 2819 2817 2815 2812 2810 2807 2804 2801 2798 2794 2790 2786 2782 2777 2772 2768 2763 2758 2753 2748 2743 2738 2733 2727 2722 2715 2709 2703 2697 2690
2759 2760 2760 2761 2762 2762 2763 2763 2764 2765 2766 2767 2769 2771 2773 2774 2775 2776 2777 2778 2779 2780 2781 2782 2783 2785 2786 2787 2789 2791 2793 2795 2798 2802 2806 2808 2810 2811 2813 2814 2815 2816 2818 2820 2821 2822 2823 2824 2823 2822 2820 2819 2817 2816 2815 2814 2812 2810 2807 2805 2802 2799 2796 2792 2789 2785 2781 2777 2772 2768 2764 2759 2754 2749 2743 2738 2733 2727 2722 2717 2711 2704 2698 2691 2684
2749 2750 2751 2752 2752 2753 2753 2754 2754 2755 2757 2758 2760 2762 2763 2765 2766 2767 2769 2770 2770 2771 2772 2773 2775 2777 2779 2780 2782 2784 2787 2790 2794 2798 2801 2804 2806 2808 2809 2810 2812 2813 2815 2816 2817 2818 2819 2819 2818 2817 2815 2814 2813 2811 2810 2809 2807 2805 2802 2800 2797 2794 2790 2787 2783 2780 2776 2772 2768 2764 2760 2755 2750 2745 2739 2734 2728 2723 2717 2712 2706 2699 2694 2687 2679
2739 2740 2741 2742 2743 2743 2743 2744 2745 2746 2748 2749 2751 2752 2754 2756 2758 2759 2760 2761 2762 2763 2763 2764 2767 2769 2770 2773 2775 2777 2780 2785 2790 2794 2797 2800 2803 2804 2805 2807 2809 2810 2811 2812 2813 2814 2814 2814 2814 2812 2810 2809 2808 2806 2805 2804 2802 2800 2798 2795 2791 2788 2785 2781 2778 2774 2771 2768 2764 2759 2755 2751 2746 2741 2735 2729 2723 2718 2712 2706 2700 2694 2688 2683 2675
2728 2730 2731 2733 2734 2734 2734 2735 2736 2737 2738 2740 2741 2743 2745 2746 2748 2750 2751 2752 2753 2754 2756 2757 2759 2760 2762 2765 2768 2770 2774 2779 2785 2790 2793 2796 2798 2800 2802 2804 2805 2806 2808 2809 2809 2809 2810 2810 2809 2808 2806 2804 2803 2802 2801 2799 2797 2795 2793 2790 2787 2783 2780 2777 2774 2770 2767 2763 2759 2755 2751 2747 2742 2736 2731 2725 2719 2712 2707 2701 2694 2687 2681 2676 2670
2719 2720 2721 2723 2724 2724 2725 2726 2727 2728 2729 2731 2733 2734 2735 2737 2738 2740 2741 2742 2744 2746 2748 2749 2751 2752 2754 2756 2759 2764 2770 2777 2783 2787 2790 2792 2795 2797 2799 2801 2802 2803 2804 2805 2805 2805 2806 2805 2804 2803 2801 2800 2798 2797 2796 2795 2793 2790 2788 2785 2782 2779 2776 2773 2769 2766 2762 2758 2755 2751 2746 2742 2737 2732 2727 2721 2714 2708 2702 2695 2690 2683 2676 2669 2663
2709 2710 2712 2713 2714 2715 2716 2717 2718 2719 2720 2722 2724 2725 2726 2728 2729 2730 2731 2733 2735 2737 2739 2741 2742 2744 2747 2750 2756 2764 2771 2777 2780 2783 2786 2789 2791 2794 2795 2797 2798 2799 2800 2801 2801 2801 2801 2801 2800 2798 2797 2795 2794 2793 2792 2790 2788 2785 2783 2780 2778 2775 2772 2768 2764 2761 2757 2754 2750 2746 2742 2737 2732 2727 2722 2716 2710 2704 2698 2691 2685 2679 2672 2665 2657
2699 2701 2702 2703 2704 2706 2707 2708 2710 2711 2712 2713 2715 2716 2718 2719 2720 2721 2723 2725 2727 2730 2731 2733 2735 2738 2743 2749 2757 2765 2770 2773 2776 2779 2782 2785 2787 2790 2791 2793 2794 2795 2796 2797 2797 2797 2796 2796 2795 2794 2792 2791 2790 2788 2787 2785 2783 2781 2779 2776 2773 2770 2767 2763 2760 2756 2753 2749 2746 2742 2738 2733 2728 2722 2717 2711 2705 2700 2694 2687 2681 2675 2668 2661 2653
2690 2691 2693 2694 2695 2697 2699 2701 2702 2703 2704 2705 2707 2708 2710 2711 2712 2714 2716 2718 2720 2722 2724 2727 2731 2736 2742 2749 2756 2762 2765 2768 2772 2775 2778 2781 2783 2785 2787 2788 2790 2791 2792 2792 2793 2792 2792 2791 2790 2789 2788 2787 2785 2784 2782 2780 2778 2776 2775 2772 2769 2766 2762 2759 2756 2753 2749 2745 2741 2737 2733 2728 2723 2718 2712 2707 2701 2695 2689 2683 2677 2670 2663 2656 2649
2682 2683 2685 2686 2688 2690 2691 2693 2694 2695 2696 2698 2699 2701 2702 2704 2705 2707 2709 2711 2713 2716 2720 2724 2729 2734 2740 2746 2752 2757 2760 2764 2767 2771 2774 2776 2779 2781 2783 2785 2786 2787 2788 2788 2788 2788 2788 2787 2786 2785 2784 2782 2781 2779 2777 2776 2774 2772 2770 2768 2764 2761 2758 2756 2752 2749 2745 2741 2737 2732 2728 2724 2719 2713 2708 2702 2696 2690 2685 2678 2672 2666 2659 2652 2645
2674 2675 2677 2678 2680 2682 2683 2685 2686 2688 2689 2691 2692 2694 2695 2697 2698 2700 2702 2705 2708 2711 2716 2720 2725 2730 2736 2743 2749 2753 2757 2760 2764 2767 2770 2772 2775 2777 2779 2781 2782 2783 2784 2784 2784 2784 2784 2783 2782 2780 2779 2778 2777 2775 2773 2772 2770 2768 2765 2763 2760 2757 2755 2751 2748 2744 2741 2736 2732 2727 2723 2719 2714 2709 2704 2698 2692 2686 2680 2674 2668 2662 2655 2648 2640
2667 2668 2669 2671 2672 2674 2675 2677 2679 2681 2682 2684 2686 2687 2689 2690 2692 2695 2697 2700 2703 2707 2712 2716 2722 2728 2735 2742 2747 2751 2754 2757 2760 2763 2766 2769 2771 2774 2776 2777 2778 2779 2780 2780 2780 2780 2779 2778 2777 2776 2775 2774 2772 2771 2769 2768 2766 2763 2760 2758 2756 2753 2750 2747 2743 2740 2736 2732 2727 2723 2718 2714 2709 2705 2699 2694 2689 2683 2677 2671 2665 2658 2651 2644 2637
2660 2661 2663 2664 2665 2667 2668 2670 2672 2674 2676 2678 2680 2681 2683 2685 2687 2690 2693 2696 2700 2705 2709 2715 2721 2729 2736 2741 2745 2748 2752 2755 2758 2761 2763 2766 2768 2770 2772 2774 2775 2775 2775 2776 2776 2776 2775 2774 2773 2772 2771 2769 2768 2767 2766 2764 2761 2759 2756 2754 2752 2749 2746 2743 2740 2736 2732 2728 2724 2719 2714 2709 2705 2701 2696 2691 2686 2680 2674 2669 2663 2656 2649 2642 2634
2655 2656 2657 2659 2660 2661 2663 2665 2667 2669 2671 2673 2674 2676 2678 2680 2683 2686 2689 2694 2699 2703 2709 2715 2723 2730 2735 2739 2742 2746 2749 2752 2755 2758 2760 2763 2765 2767 2769 2770 2771 2771 2771 2772 2772 2771 2771 2770 2769 2768 2767 2766 2765 2764 2762 2760 2758 2755 2753 2751 2748 2746 2743 2740 2737 2733 2729 2725 2721 2716 2711 2706 2702 2697 2693 2688 2682 2677 2671 2666 2660 2654 2647 2640 2632
2651 2652 2653 2654 2655 2657 2658 2660 2661 2663 2665 2667 2669 2671 2674 2677 2680 2684 2689 2694 2699 2704 2710 2717 2724 2730 2734 2737 2741 2744 2747 2750 2753 2755 2758 2760 2762 2764 2765 2766 2767 2767 2767 2768 2768 2767 2767 2766 2765 2764 2763 2762 2761 2760 2758 2756 2754 2752 2750 2747 2745 2743 2740 2737 2734 2730 2726 2722 2718 2713 2708 2704 2699 2694 2690 2685 2679 2674 2668 2663 2657 2651 2644 2638 2630
2646 2647 2648 2649 2650 2652 2653 2654 2656 2658 2660 2663 2666 2669 2672 2676 2680 2685 2690 2694 2700 2706 2712 2719 2724 2729 2732 2736 2739 2742 2745 2748 2751 2753 2756 2758 2759 2761 2761 2762 2762 2763 2763 2763 2763 2763 2762 2761 2760 2760 2759 2758 2757 2756 2754 2752 2750 2748 2746 2744 2742 2740 2737 2734 2731 2727 2723 2719 2714 2710 2706 2701 2697 2692 2687 2683 2677 2672 2666 2660 2655 2649 2642 2635 2628
2641 2643 2644 2645 2646 2648 2649 2651 2653 2655 2658 2661 2665 2669 2673 2678 2683 2687 2692 2696 2702 2708 2714 2720 2724 2728 2732 2736 2739 2741 2744 2747 2749 2751 2753 2755 2756 2757 2757 2758 2759 2759 2759 2759 2759 2758 2757 2756 2756 2755 2755 2754 2753 2751 2750 2748 2746 2744 2742 2740 2738 2736 2734 2731 2727 2723 2719 2715 2711 2707 2703 2699 2694 2690 2685 2680 2675 2670 2664 2659 2653 2647 2640 2633 2626
2638 2639 2640 2642 2643 2645 2647 2649 2652 2655 2659 2663 2668 2672 2677 2681 2686 2690 2694 2700 2705 2711 2716 2720 2724 2728 2732 2735 2738 2740 2743 2745 2747 2748 2750 2751 2752 2753 2754 2755 2755 2755 2755 2755 2754 2754 2753 2753 2752 2751 2750 2749 2748 2747 2745 2744 2742 2740 2738 2736 2734 2732 2730 2727 2723 2720 2716 2712 2708 2704 2700 2696 2691 2687 2682 2678 2673 2667 2662 2657 2651 2645 2639 2632 2625